SCP
0 0 0 0 0 0 0 0 0 0 0 0 0 0 0 0 0 0 0 0 0 0
0 0 0 0 0 0 0 0 0 0 0 0 0 0 0 0 0 0 0 0 0 0
0 0 0 0 0 0 0 0 0 0 0 0 0 0 0 0 0 0 0 0 0 0
0 0 0 0 0 0 0 0 0 0 0 0 0 0 0 0 0 0 0 0 0 0
0 -0 0 0 0 0 0 0 0 0 0 0 0 0 0 0 0 0 0 0 0 0
0 0 0 0 0 0 0 0 0 0 0 0 0 0 0 0 0 0 0 0 0 0
0 0 0 0 0 0 0 0 0 0 0 0 0 0 0 0 0 0 0 0 0 0
0 0 0 0 0 0 0 0 0 0 0 0 0 0 0 0 0 0 0 0 0 0
0 0 0 0 0 0 0 0 0 0 0 0 0 0 0 0 0 0 0 0 0 0
0 0 -0 0 0 0 0 0 0 0 0 0 0 0 0 0 0 0 0 0 0 0
0 0 -0 0 -0 0 0 0 0 0 0 0 0 0 0 0 0 0 0 0 0 0
0 0 -0 -0 -0 0 0 0 0 0 0 0 0 0 0 0 0 0 0 0 0 0
0 0 -0 0 -0 0 0 0 0 0 0 0 0 0 0 0 0 0 0 0 0 -0
0 0 -0 -0 -0 -0 -0 0 0 0 0 0 -0 -0 -0 -0 0 0 0 0 0 0
Wind_Speed_500mb
60 62 64 66 67 67 64 58 46 42 41 41 45 51 55 54 55 58 59 67 77 77
60 58 60 64 66 62 53 47 44 43 43 44 47 49 51 57 59 58 58 62 64 74
62 60 60 62 61 55 47 44 43 42 47 50 51 52 55 60 61 65 66 65 64 59
65 63 61 59 56 52 48 46 46 48 51 51 53 54 59 63 64 65 64 62 61 62
67 67 63 59 56 51 49 46 49 49 48 50 54 60 66 67 66 65 64 63 61 63
68 69 65 60 55 50 49 46 48 48 50 55 59 63 65 64 64 63 62 60 60 60
71 70 67 62 56 52 48 49 50 50 54 56 59 63 63 59 54 55 53 54 55 54
73 70 68 64 58 50 44 46 49 50 52 55 57 58 56 55 54 48 44 43 46 51
70 70 67 61 56 50 46 45 47 49 52 51 55 53 51 48 45 44 39 39 40 42
69 69 64 58 54 52 48 46 47 49 51 51 50 53 51 45 44 39 38 36 33 33
68 68 60 58 55 51 50 48 49 49 48 49 48 57 51 39 38 33 30 29 29 30
65 67 60 59 59 54 50 46 44 43 42 46 49 61 45 39 32 27 25 22 21 25
59 61 60 57 58 55 47 42 38 35 32 38 48 50 39 35 22 21 22 20 22 25
53 54 56 53 54 52 46 37 32 29 26 33 43 40 34 34 27 23 20 21 20 11
Wind_Direction_500mb
317 314 311 311 311 309 308 308 310 306 304 304 305 304 303 300 292 286 280 270 261 259
317 317 316 315 313 310 308 306 304 305 307 307 304 303 299 294 293 292 286 283 282 266
323 323 321 321 319 313 307 300 301 304 306 306 307 308 302 298 296 292 289 288 287 280
330 328 326 325 323 316 307 303 305 305 308 310 312 310 304 300 298 293 289 286 279 272
334 331 331 329 325 321 313 309 307 310 312 312 312 311 306 300 297 294 288 283 279 276
336 333 331 326 322 319 318 317 320 317 314 315 314 313 309 302 295 293 289 285 274 275
338 335 332 326 320 316 320 318 317 315 315 317 320 320 315 308 300 298 293 284 272 270
338 336 334 330 328 323 317 316 317 315 317 324 328 324 321 313 303 295 292 287 272 266
339 338 338 336 331 328 323 319 317 319 325 332 332 332 327 319 301 291 284 280 277 274
342 340 345 338 330 329 324 321 321 324 329 330 336 336 323 317 312 290 278 275 272 271
342 341 344 339 334 329 324 320 320 324 329 323 333 332 327 310 309 304 291 278 275 272
342 340 340 336 335 335 326 323 323 323 326 324 332 333 329 328 310 297 301 272 283 282
340 340 341 339 337 339 336 331 327 330 332 332 332 331 335 335 317 310 298 279 283 277
339 343 346 346 346 349 346 339 339 339 342 338 333 333 343 337 320 307 301 291 287 242
Wind_Speed_850mb
60 62 64 66 67 67 64 58 46 42 41 41 45 51 55 54 55 58 59 67 77 77
60 58 60 64 66 62 53 47 44 43 43 44 47 49 51 57 59 58 58 62 64 74
62 60 60 62 61 55 47 44 43 42 47 50 51 52 55 60 61 65 66 65 64 59
65 63 61 59 56 52 48 46 46 48 51 51 53 54 59 63 64 65 64 62 61 62
67 67 63 59 56 51 49 46 49 49 48 50 54 60 66 67 66 65 64 63 61 63
68 69 65 60 55 50 49 46 48 48 50 55 59 63 65 64 64 63 62 60 60 60
71 70 67 62 56 52 48 49 50 50 54 56 59 63 63 59 54 55 53 54 55 54
73 70 68 64 58 50 44 46 49 50 52 55 57 58 56 55 54 48 44 43 46 51
70 70 67 61 56 50 46 45 47 49 52 51 55 53 51 48 45 44 39 39 40 42
69 69 64 58 54 52 48 46 47 49 51 51 50 53 51 45 44 39 38 36 33 33
68 68 60 58 55 51 50 48 49 49 48 49 48 57 51 39 38 33 30 29 29 30
65 67 60 59 59 54 50 46 44 43 42 46 49 61 45 39 32 27 25 22 21 25
59 61 60 57 58 55 47 42 38 35 32 38 48 50 39 35 22 21 22 20 22 25
53 54 56 53 54 52 46 37 32 29 26 33 43 40 34 34 27 23 20 21 20 11
Wind_Direction_850mb
317 314 311 311 311 309 308 308 310 306 304 304 305 304 303 300 292 286 280 270 261 259
317 317 316 315 313 310 308 306 304 305 307 307 304 303 299 294 293 292 286 283 282 266
323 323 321 321 319 313 307 300 301 304 306 306 307 308 302 298 296 292 289 288 287 280
330 328 326 325 323 316 307 303 305 305 308 310 312 310 304 300 298 293 289 286 279 272
334 331 331 329 325 321 313 309 307 310 312 312 312 311 306 300 297 294 288 283 279 276
336 333 331 326 322 319 318 317 320 317 314 315 314 313 309 302 295 293 289 285 274 275
338 335 332 326 320 316 320 318 317 315 315 317 320 320 315 308 300 298 293 284 272 270
338 336 334 330 328 323 317 316 317 315 317 324 328 324 321 313 303 295 292 287 272 266
339 338 338 336 331 328 323 319 317 319 325 332 332 332 327 319 301 291 284 280 277 274
342 340 345 338 330 329 324 321 321 324 329 330 336 336 323 317 312 290 278 275 272 271
342 341 344 339 334 329 324 320 320 324 329 323 333 332 327 310 309 304 291 278 275 272
342 340 340 336 335 335 326 323 323 323 326 324 332 333 329 328 310 297 301 272 283 282
340 340 341 339 337 339 336 331 327 330 332 332 332 331 335 335 317 310 298 279 283 277
339 343 346 346 346 349 346 339 339 339 342 338 333 333 343 337 320 307 301 291 287 242